Вернуться в каталог

COSMOS 1629

АктивенВоенныеGEO
NORAD 15574·PAYLOAD·🇷🇺 Russia

Запущен Feb 21, 1985 с Baikonur Cosmodrome

Loading…

TLE

СвежийSource: Space-Track

Эпоха: Sep 14, 2026, 11:01 UTC

1 15574U 85016A   26257.45924556  .00000109  00000-0  00000-0 0  9994
2 15574   8.9723 313.9579 0007699 272.0319 141.1934  1.00347754151354

Отслеживайте COSMOS 1629 в реальном времени с AllMySat

Download on the App Store